GW5597 Weather Reports


Display with metric or nautical units.
time (UTC)temp
F
wind
direction
speed
MPH
gust
MPH
rain 1hr
in
rain 24hr
in
rain mn
in
humidity
%
barometer
mb
20260503193806 81 344 2.0 4.0 0.00 0.00 0.00 46 1010.1
20260503193304 80 291 2.0 4.0 0.00 0.00 0.00 46 1010.2
20260503192804 80 333 2.0 4.0 0.00 0.00 0.00 46 1010.2
20260503192305 80 339 2.0 5.0 0.00 0.00 0.00 46 1010.3
20260503191804 79 11 2.0 5.0 0.00 0.00 0.00 47 1010.4
20260503191536 79 314 2.0 5.0 0.00 0.00 0.00 48 1010.4
20260503190804 79 332 2.0 5.0 0.00 0.00 0.00 48 1010.5
20260503190304 78 325 2.0 5.0 0.00 0.00 0.00 49 1010.6
20260503185805 77 326 2.0 4.0 0.00 0.00 0.00 50 1010.6
20260503185305 77 328 2.0 4.0 0.00 0.00 0.00 51 1010.7
20260503184804 76 356 2.0 4.0 0.00 0.00 0.00 52 1010.8
20260503184304 76 118 2.0 4.0 0.00 0.00 0.00 53 1010.8
20260503183805 75 347 2.0 5.0 0.00 0.00 0.00 53 1010.9
20260503183305 75 340 2.0 5.0 0.00 0.00 0.00 54 1010.9
20260503182804 74 341 2.0 4.0 0.00 0.00 0.00 55 1010.9
20260503182305 74 330 2.0 4.0 0.00 0.00 0.00 55 1011.0
20260503181803 74 303 3.0 4.0 0.00 0.00 0.00 55 1011.0
20260503181304 73 326 2.0 4.0 0.00 0.00 0.00 56 1011.1
20260503180804 73 320 2.0 4.0 0.00 0.00 0.00 57 1011.1
20260503180304 72 15 2.0 4.0 0.00 0.00 0.00 57 1011.2
20260503175804 72 336 2.0 4.0 0.00 0.00 0.00 60 1011.2
20260503175305 71 335 2.0 4.0 0.00 0.00 0.00 61 1011.3
20260503174804 71 316 2.0 4.0 0.00 0.00 0.00 61 1011.3
20260503174300 70 312 2.0 4.0 0.00 0.00 0.00 62 1011.3
20260503173757 70 342 2.0 4.0 0.00 0.00 0.00 63 1011.4
20260503173258 69 348 2.0 5.0 0.00 0.00 0.00 64 1011.5
20260503172758 69 320 2.0 5.0 0.00 0.00 0.00 65 1011.5
20260503172257 68 330 2.0 4.0 0.00 0.00 0.00 68 1011.5
20260503171758 68 18 2.0 4.0 0.00 0.00 0.00 68 1011.5
20260503171257 68 300 2.0 5.0 0.00 0.00 0.00 68 1011.5
20260503170757 67 338 2.0 5.0 0.00 0.00 0.00 69 1011.6
20260503170745 67 359 2.0 3.0 0.00 0.00 0.00 70 1011.6
20260503150754 61 65 2.0 3.0 0.00 0.00 0.00 86 1012.1
20260503150254 60 91 2.0 3.0 0.00 0.00 0.00 89 1012.1
20260503140240 54 16 1.0 2.0 0.00 0.00 0.00 100 1011.8
20260503130736 54 162 1.0 2.0 0.00 0.00 0.00 98 1011.5
20260503130235 54 115 1.0 2.0 0.00 0.00 0.00 98 1011.5
20260503110725 55 76 1.0 2.0 0.00 0.00 0.00 98 1011.8
20260503110225 55 76 1.0 2.0 0.00 0.00 0.00 97 1011.9
20260503090219 58 89 1.0 2.0 0.00 0.00 0.00 93 1012.1
20260503081216 58 155 1.0 2.0 0.00 0.01 0.00 91 1012.1
20260503080716 58 91 1.0 2.0 0.00 0.01 0.00 91 1012.0
20260503080216 58 78 1.0 2.0 0.00 0.01 0.00 91 1012.1
20260503072937 59 181 1.0 2.0 0.00 0.01 0.00 90 1012.2
20260503072214 59 97 1.0 2.0 0.00 0.01 0.00 90 1012.2
20260503071714 59 82 1.0 2.0 0.00 0.01 0.00 89 1012.2
20260503071215 59 41 1.0 2.0 0.00 0.01 0.00 90 1012.2
20260503070718 59 179 1.0 2.0 0.00 0.01 0.00 89 1012.2
20260503070214 59 105 1.0 2.0 0.00 0.01 0.00 89 1012.2
20260503060209 61 158 1.0 2.0 0.00 0.01 0.01 84 1012.3
20260503054709 62 107 1.0 2.0 0.00 0.01 0.01 84 1012.0
20260503054210 62 96 1.0 2.0 0.00 0.01 0.01 83 1011.9
20260503053710 62 158 1.0 2.0 0.00 0.01 0.01 83 1011.9
20260503053210 62 90 1.0 2.0 0.00 0.01 0.01 82 1012.0
20260503052710 62 74 1.0 2.0 0.00 0.01 0.01 82 1011.9
20260503052209 62 81 1.0 2.0 0.00 0.01 0.01 81 1011.9
20260503051710 63 72 1.0 3.0 0.00 0.01 0.01 81 1011.9
20260503051210 63 0 1.0 3.0 0.00 0.01 0.01 81 1011.9
20260503050708 63 70 1.0 3.0 0.00 0.01 0.01 81 1012.2
20260503050207 63 358 1.0 2.0 0.00 0.01 0.01 80 1012.1
20260503045707 63 0 0.0 2.0 0.00 0.01 0.01 80 1012.4
20260503045207 63 110 0.0 2.0 0.00 0.01 0.01 79 1012.4
20260503045152 63 353 1.0 2.0 0.00 0.01 0.01 79 1012.4
20260503044208 63 85 1.0 2.0 0.00 0.01 0.01 79 1012.4
20260503043708 63 77 1.0 2.0 0.00 0.01 0.01 79 1012.3
20260503043205 63 90 1.0 2.0 0.00 0.01 0.01 79 1012.3
20260503042705 63 111 1.0 2.0 0.00 0.01 0.01 81 1012.3
20260503042204 63 68 0.0 2.0 0.00 0.01 0.01 81 1012.2
20260503041719 64 0 1.0 2.0 0.00 0.01 0.01 79 1012.1
20260503041707 63 85 1.0 2.0 0.00 0.01 0.01 80 1012.2
20260503040705 64 66 0.0 2.0 0.00 0.01 0.01 79 1012.1
20260503040204 64 27 1.0 2.0 0.00 0.01 0.01 78 1012.1
20260503035703 64 88 1.0 2.0 0.00 0.01 0.01 77 1012.1
20260503035645 65 93 1.0 2.0 0.00 0.01 0.01 77 1012.1
20260503034704 65 80 1.0 2.0 0.00 0.01 0.01 76 1012.1
20260503034433 65 0 0.0 2.0 0.00 0.01 0.01 76 1012.1
20260503033701 65 60 1.0 2.0 0.00 0.01 0.01 75 1012.0
20260503033201 65 0 1.0 2.0 0.00 0.01 0.01 74 1011.9
20260503032701 65 82 1.0 2.0 0.00 0.01 0.01 74 1011.9
20260503032201 65 96 1.0 2.0 0.00 0.01 0.01 73 1011.8
20260503032139 65 55 0.0 2.0 0.00 0.01 0.01 73 1011.8
20260503031201 66 0 1.0 3.0 0.00 0.01 0.01 73 1011.8
20260503030700 66 191 1.0 3.0 0.00 0.01 0.01 72 1011.7
20260503030200 66 243 1.0 2.0 0.00 0.01 0.01 72 1011.8
20260503025701 66 81 1.0 3.0 0.00 0.01 0.01 72 1011.8
20260503025201 66 172 1.0 5.0 0.00 0.01 0.01 72 1011.8
20260503024700 66 242 2.0 5.0 0.00 0.01 0.01 72 1011.8
20260503024201 67 196 2.0 5.0 0.00 0.01 0.01 71 1011.8
20260503023657 67 232 2.0 5.0 0.00 0.01 0.01 70 1011.8
20260503023423 68 164 2.0 5.0 0.00 0.01 0.01 70 1011.8
20260503022655 69 180 2.0 5.0 0.00 0.01 0.01 68 1011.8
20260503022155 69 9 2.0 5.0 0.00 0.01 0.01 67 1011.7
20260503021655 70 206 2.0 6.0 0.00 0.01 0.01 65 1011.7
20260503021159 70 34 2.0 6.0 0.00 0.01 0.01 64 1011.8
20260503020654 71 183 2.0 6.0 0.00 0.01 0.01 63 1011.7
20260503020154 71 189 1.0 4.0 0.00 0.01 0.01 63 1011.3
20260503020132 72 0 1.0 4.0 0.00 0.01 0.01 63 1011.1
20260503015154 72 189 1.0 4.0 0.00 0.01 0.01 61 1011.1
20260503014653 73 252 1.0 3.0 0.00 0.01 0.01 59 1010.9
20260503014154 73 285 1.0 2.0 0.00 0.01 0.01 58 1010.9
20260503013654 73 295 0.0 2.0 0.00 0.01 0.01 58 1010.9
20260503013150 73 336 0.0 2.0 0.00 0.01 0.01 59 1010.9
20260503012907 73 298 0.0 2.0 0.00 0.01 0.01 60 1010.9
20260503012152 73 0 0.0 1.0 0.00 0.01 0.01 60 1010.9
20260503011649 73 0 0.0 2.0 0.00 0.01 0.01 61 1010.8
20260503011150 73 0 1.0 2.0 0.00 0.01 0.01 60 1010.8
20260503010647 73 322 1.0 3.0 0.00 0.01 0.01 59 1010.8
20260503010147 73 0 1.0 3.0 0.00 0.01 0.01 58 1010.8
20260503005648 73 338 2.0 4.0 0.00 0.01 0.01 57 1010.8
20260503005149 73 338 2.0 5.0 0.00 0.01 0.01 57 1010.9
20260503004648 73 355 2.0 5.0 0.00 0.01 0.01 57 1010.8
20260503004148 73 295 1.0 3.0 0.00 0.01 0.01 57 1010.9
20260503003647 73 299 1.0 3.0 0.00 0.01 0.01 57 1010.9
20260503003413 73 329 2.0 4.0 0.00 0.01 0.01 56 1010.9
20260503002645 73 305 2.0 4.0 0.00 0.01 0.01 57 1010.9
20260503002146 73 328 2.0 4.0 0.00 0.01 0.01 57 1010.9
20260503001645 72 307 2.0 4.0 0.00 0.01 0.01 57 1011.0
20260503001146 72 320 2.0 4.0 0.00 0.01 0.01 58 1011.0
20260503000645 72 38 2.0 3.0 0.00 0.01 0.01 58 1011.0
20260503000146 71 327 2.0 4.0 0.00 0.01 0.01 59 1011.0
20260502235645 71 28 2.0 4.0 0.00 0.01 0.01 59 1011.1
20260502235146 71 324 2.0 4.0 0.00 0.01 0.01 59 1011.1
20260502234646 71 359 2.0 4.0 0.00 0.01 0.01 60 1011.2
20260502234146 71 318 2.0 4.0 0.00 0.01 0.01 60 1011.2
20260502233645 71 19 2.0 4.0 0.00 0.01 0.01 59 1011.3
20260502233146 71 58 1.0 4.0 0.00 0.01 0.01 59 1011.4
20260502232645 70 330 1.0 3.0 0.00 0.01 0.01 61 1011.5
20260502232406 70 294 2.0 4.0 0.00 0.01 0.01 60 1011.5
20260502231143 70 314 1.0 4.0 0.00 0.01 0.01 60 1011.6
20260502230904 69 256 1.0 4.0 0.00 0.01 0.01 61 1011.6
20260502230405 69 339 1.0 4.0 0.00 0.01 0.01 60 1011.7
20260502225642 69 219 2.0 4.0 0.00 0.01 0.01 60 1011.8
20260502225142 69 330 2.0 4.0 0.00 0.01 0.01 61 1011.9
20260502224643 69 52 1.0 3.0 0.00 0.01 0.01 62 1012.0
20260502223404 68 317 2.0 4.0 0.00 0.01 0.01 62 1012.2
20260502222640 69 43 2.0 4.0 0.00 0.01 0.01 61 1012.3
20260502222140 69 329 2.0 4.0 0.00 0.01 0.01 61 1012.4
20260502221641 69 305 2.0 3.0 0.00 0.01 0.01 62 1012.5
20260502221141 69 31 1.0 3.0 0.00 0.01 0.01 62 1012.6
20260502220641 69 55 1.0 3.0 0.00 0.01 0.01 62 1012.6
20260502215641 68 320 1.0 4.0 0.00 0.01 0.01 62 1012.8
20260502215141 68 318 1.0 4.0 0.00 0.01 0.01 61 1012.8
20260502214642 68 339 1.0 4.0 0.00 0.01 0.01 61 1012.9
20260502214403 68 336 2.0 4.0 0.00 0.01 0.01 62 1012.9
20260502213903 68 347 2.0 4.0 0.00 0.01 0.01 62 1013.1
20260502213135 68 332 2.0 4.0 0.00 0.01 0.01 61 1013.1
20260502212636 67 61 2.0 4.0 0.00 0.01 0.01 62 1013.2
20260502212136 67 305 2.0 4.0 0.00 0.01 0.01 64 1013.3
20260502211858 66 15 1.0 4.0 0.00 0.01 0.01 65 1013.4
20260502211137 66 346 2.0 8.0 0.00 0.01 0.01 64 1013.4
20260502210636 66 129 2.0 8.0 0.00 0.01 0.01 64 1013.4
20260502210137 65 35 2.0 4.0 0.00 0.01 0.01 65 1013.5
20260502205637 65 316 2.0 4.0 0.00 0.01 0.01 66 1013.7
20260502205404 65 51 1.0 3.0 0.00 0.01 0.01 65 1013.8
20260502204859 65 355 1.0 3.0 0.00 0.01 0.01 66 1014.0
20260502204134 64 169 1.0 3.0 0.00 0.01 0.01 68 1014.0
20260502203634 64 308 2.0 5.0 0.00 0.01 0.01 67 1014.1
20260502203131 64 343 2.0 5.0 0.00 0.01 0.01 66 1014.1
20260502202631 63 355 1.0 3.0 0.00 0.01 0.01 68 1014.1
20260502202131 62 190 2.0 4.0 0.00 0.01 0.01 70 1014.1
20260502201631 62 78 1.0 4.0 0.00 0.01 0.01 71 1014.2
20260502201132 62 307 1.0 3.0 0.00 0.01 0.01 70 1014.3
20260502200632 62 152 1.0 4.0 0.00 0.01 0.01 72 1014.3
20260502200131 62 313 2.0 4.0 0.00 0.01 0.01 71 1014.3
20260502195631 62 326 1.0 4.0 0.00 0.01 0.01 71 1014.3
20260502195131 62 50 2.0 3.0 0.00 0.01 0.01 72 1014.4
20260502194632 62 278 2.0 4.0 0.00 0.01 0.01 72 1014.4